Gastonia, NC

2:53 AM EST on February 22, 2017 (GMT -0500)
Gastonia Municipal

Weather History for KAKH - December, 2013

Change the Weather History Date:

Monday, December 9, 2013

  Actual Average (KCLT) Record (KCLT)
Temperature  
Mean Temperature 40 °F -  
Max Temperature 46 °F 55 °F 78 °F (1943)
Min Temperature 35 °F 36 °F 14 °F (2006)
Degree Days  
Heating Degree Days 25    
Moisture  
Dew Point 40 °F    
Average Humidity 98    
Maximum Humidity 100    
Minimum Humidity 93    
Precipitation  
Precipitation 0.37 in - - ()
Sea Level Pressure  
Sea Level Pressure 30.15 in    
Wind  
Wind Speed 2 mph (South)    
Max Wind Speed 6 mph    
Max Gust Speed -    
Visibility 4 miles    
Events Rain    
Averages and records for this station are not official NWS values.
T = Trace of Precipitation, MM = Missing Value Source: NWS Daily Summary

Daily Weather History Graph

Daily Weather History Graph

Search for Another Location

Airport or City:

Trip Planner

Search our weather history database for the weather conditions in past years. The results will help you decide how hot, cold, wet, or windy it might be!

Date:

Astronomy

Dec. 09, 2013 Rise Set
Actual Time 7:21 AM EST 5:12 PM EST
Civil Twilight 6:53 AM EST 5:40 PM EST
Nautical Twilight 6:21 AM EST 6:12 PM EST
Astronomical Twilight 5:51 AM EST 6:43 PM EST
Moon 12:26 PM EST (12/9) No Moon Set
Length of Visible Light 10h 47m
Length of Day
9h 50m
Waxing Crescent, 51% of the Moon is Illuminated
Dec 9
Waxing Crescent
Dec 17
Full
Dec 25
Last Quarter
Jan 1
New
Jan 7
First Quarter

Hourly Weather History & Observations

Time (EST) Temp. Windchill Dew Point Humidity Pressure Visibility Wind Dir Wind Speed Gust Speed Precip Events Conditions
12:16 AM 35.6 °F 30.7 °F 33.8 °F 93% 30.25 in 2.5 mi NE 5.8 mph - N/A   Overcast
12:54 AM 35.1 °F 32.2 °F 35.1 °F 100% 30.26 in 2.0 mi NNE 3.5 mph - N/A   Overcast
1:39 AM 35.6 °F 30.7 °F 33.8 °F 93% 30.22 in 1.5 mi ENE 5.8 mph - N/A   Overcast
1:54 AM 35.1 °F 32.2 °F 35.1 °F 100% 30.26 in 2.0 mi North 3.5 mph - N/A   Overcast
2:54 AM 36.0 °F - 35.1 °F 97% 30.24 in 3.0 mi Calm Calm - N/A   Overcast
3:05 AM 35.6 °F - 35.6 °F 100% 30.21 in 2.0 mi Calm Calm - N/A   Overcast
3:25 AM 35.6 °F 32.8 °F 35.6 °F 100% 30.20 in 1.2 mi SE 3.5 mph - N/A   Overcast
3:54 AM 35.1 °F 32.2 °F 35.1 °F 100% 30.20 in 1.8 mi SE 3.5 mph - N/A   Overcast
4:54 AM 36.0 °F - 36.0 °F 100% 30.21 in 1.5 mi Calm Calm - N/A   Overcast
5:54 AM 36.0 °F - 36.0 °F 100% 30.20 in 1.8 mi Calm Calm - 0.00 in Rain Light Rain
6:24 AM 35.6 °F 32.8 °F 35.6 °F 100% 30.17 in 2.0 mi SSE 3.5 mph - 0.01 in Rain Light Rain
6:42 AM 35.6 °F - 35.6 °F 100% 30.16 in 4.0 mi Calm Calm - 0.03 in Rain Light Rain
6:54 AM 36.0 °F - 36.0 °F 100% 30.19 in 5.0 mi Calm Calm - 0.03 in Rain Light Rain
7:30 AM 35.6 °F - 35.6 °F 100% 30.15 in 10.0 mi Calm Calm - 0.00 in   Overcast
7:50 AM 37.4 °F - 35.6 °F 93% 30.18 in 8.0 mi Calm Calm - 0.00 in   Overcast
7:54 AM 37.0 °F - 36.0 °F 96% 30.19 in 7.0 mi Calm Calm - 0.00 in   Overcast
8:44 AM 37.4 °F - 35.6 °F 93% 30.18 in 1.8 mi Calm Calm - 0.00 in   Overcast
8:54 AM 37.0 °F - 36.0 °F 96% 30.20 in 1.2 mi Calm Calm - 0.00 in   Overcast
9:29 AM 37.4 °F - 37.4 °F 100% 30.18 in 2.5 mi Calm Calm - 0.00 in   Overcast
9:54 AM 37.9 °F - 37.0 °F 97% 30.19 in 2.0 mi Calm Calm - 0.01 in Rain Light Rain
10:12 AM 37.4 °F - 37.4 °F 100% 30.17 in 1.5 mi Calm Calm - 0.00 in   Overcast
10:36 AM 39.2 °F - 39.2 °F 100% 30.17 in 0.8 mi Calm Calm - 0.00 in   Overcast
10:54 AM 39.0 °F 35.7 °F 37.9 °F 96% 30.19 in 1.0 mi WSW 4.6 mph - 0.01 in Rain Light Rain
11:35 AM 39.2 °F - 39.2 °F 100% 30.15 in 3.0 mi Calm Calm - 0.08 in Rain Light Rain
11:54 AM 39.9 °F - 39.0 °F 97% 30.17 in 10.0 mi Calm Calm - 0.08 in   Overcast
12:52 PM 41.0 °F 39.0 °F 39.2 °F 93% 30.12 in 3.0 mi South 3.5 mph - 0.03 in Rain Rain
12:54 PM 41.0 °F - 39.9 °F 96% 30.14 in 3.0 mi Calm Calm - 0.04 in Rain Rain
1:54 PM 42.1 °F 40.2 °F 41.0 °F 96% 30.11 in 6.0 mi South 3.5 mph - 0.01 in Rain Light Rain
2:08 PM 42.8 °F 40.1 °F 42.8 °F 100% 30.09 in 2.0 mi SSW 4.6 mph - 0.04 in Rain Heavy Rain
2:23 PM 42.8 °F 40.1 °F 42.8 °F 100% 30.08 in 5.0 mi South 4.6 mph - 0.06 in Rain Light Rain
2:54 PM 44.1 °F 42.5 °F 43.0 °F 96% 30.09 in 4.0 mi South 3.5 mph - 0.08 in Rain Light Rain
3:05 PM 44.6 °F 42.2 °F 42.8 °F 93% 30.08 in 8.0 mi SSW 4.6 mph - 0.00 in Rain Light Rain
3:17 PM 44.6 °F 42.2 °F 42.8 °F 93% 30.06 in 1.8 mi South 4.6 mph - 0.04 in Rain Rain
3:22 PM 44.6 °F 43.1 °F 42.8 °F 93% 30.07 in 3.0 mi SSW 3.5 mph - 0.04 in Rain Rain
3:54 PM 45.0 °F 43.5 °F 44.1 °F 97% 30.09 in 6.0 mi SSW 3.5 mph - 0.06 in Rain Light Rain
4:54 PM 45.0 °F - 45.0 °F 100% 30.10 in 6.0 mi Calm Calm - 0.00 in Rain Light Rain
5:34 PM 44.6 °F - 44.6 °F 100% 30.09 in 8.0 mi Calm Calm - 0.04 in Rain Light Rain
5:54 PM 45.0 °F - 45.0 °F 100% 30.11 in 10.0 mi Calm Calm - 0.04 in   Overcast
6:54 PM 45.0 °F - 45.0 °F 100% 30.12 in 10.0 mi Calm Calm - 0.01 in   Overcast
7:11 PM 44.6 °F - 44.6 °F 100% 30.10 in 10.0 mi Calm Calm - N/A   Overcast
7:54 PM 45.0 °F - 45.0 °F 100% 30.12 in 10.0 mi Calm Calm - N/A   Overcast
8:54 PM 45.0 °F - 44.1 °F 97% 30.11 in 6.0 mi Calm Calm - N/A   Overcast
9:54 PM 45.0 °F - 45.0 °F 100% 30.10 in 1.5 mi Calm Calm - N/A   Overcast
10:39 PM 44.6 °F - 44.6 °F 100% 30.08 in 3.0 mi Calm Calm - N/A   Overcast
10:54 PM 45.0 °F - 45.0 °F 100% 30.09 in 4.0 mi Calm Calm - N/A   Overcast
11:03 PM 44.6 °F - 44.6 °F 100% 30.07 in 2.5 mi Calm Calm - N/A   Overcast
11:12 PM 44.6 °F - 44.6 °F 100% 30.06 in 5.0 mi Calm Calm - N/A   Overcast
11:54 PM 46.0 °F - 45.0 °F 96% 30.06 in 6.0 mi Calm Calm - N/A   Overcast